Montpelier, VT

9:08 PM EST on December 15, 2017 (GMT -0500)
Knapp State

Weather History for KMPV - May, 2014

Change the Weather History Date:

Monday, May 26, 2014

  Actual Average Record
Temperature  
Mean Temperature 65 °F 57 °F  
Max Temperature 74 °F 69 °F 87 °F (2010)
Min Temperature 55 °F 45 °F 27 °F (1956)
Degree Days  
Heating Degree Days 0 9  
Month to date heating degree days 317  
Since 1 July heating degree days 8021  
Cooling Degree Days 0 1  
Month to date cooling degree days 1 2  
Year to date cooling degree days 1 3  
Growing Degree Days 15 (Base 50)    
Moisture  
Dew Point 53 °F    
Average Humidity 67    
Maximum Humidity 93    
Minimum Humidity 41    
Precipitation  
Precipitation 0.03 in 0.12 in 3.83 in (2011)
Month to date precipitation 2.85 2.79  
Year to date precipitation 12.31 12.33  
Sea Level Pressure  
Sea Level Pressure 29.91 in    
Wind  
Wind Speed 6 mph (West)    
Max Wind Speed 20 mph    
Max Gust Speed 26 mph    
Visibility 10 miles    
Events Rain    
T = Trace of Precipitation, MM = Missing Value Source: NWS Daily Summary

Daily Weather History Graph

Daily Weather History Graph

Search for Another Location

Airport or City:

Trip Planner

Search our weather history database for the weather conditions in past years. The results will help you decide how hot, cold, wet, or windy it might be!

Date:

Astronomy

May. 26, 2014 Rise Set
Actual Time 5:13 AM EDT 8:21 PM EDT
Civil Twilight 4:38 AM EDT 8:56 PM EDT
Nautical Twilight 3:53 AM EDT 9:41 PM EDT
Astronomical Twilight 2:59 AM EDT 10:36 PM EDT
Moon 3:59 AM EDT (5/26) 6:16 PM EDT (5/26)
Length of Visible Light 16h 17m
Length of Day
15h 08m
Waning Crescent, 5% of the Moon is Illuminated
May 26
Waning Crescent
May 28
New
Jun 5
First Quarter
Jun 13
Full
Jun 19
Last Quarter

Hourly Weather History & Observations

Time (EDT) Temp. Dew Point Humidity Pressure Visibility Wind Dir Wind Speed Gust Speed Precip Events Conditions
12:51 AM 57.0 °F 53.1 °F 87% 29.97 in 10.0 mi Calm Calm - 0.00 in   Partly Cloudy
1:51 AM 57.9 °F 50.0 °F 75% 29.96 in 10.0 mi WSW 3.5 mph - N/A   Clear
2:51 AM 62.6 °F 44.6 °F 52% 29.95 in 10.0 mi SSW 4.6 mph - N/A   Clear
3:51 AM 62.1 °F 45.0 °F 53% 29.94 in 10.0 mi WSW 5.8 mph - N/A   Scattered Clouds
4:51 AM 57.9 °F 51.1 °F 78% 29.94 in 9.0 mi West 5.8 mph - 0.01 in Rain Light Rain
5:51 AM 57.9 °F 52.0 °F 81% 29.94 in 10.0 mi WSW 8.1 mph - 0.01 in Rain Light Rain
6:51 AM 57.9 °F 53.1 °F 84% 29.94 in 10.0 mi Variable 4.6 mph - 0.00 in   Mostly Cloudy
7:51 AM 60.1 °F 52.0 °F 75% 29.95 in 10.0 mi Variable 3.5 mph - 0.00 in   Overcast
8:51 AM 63.0 °F 54.0 °F 72% 29.94 in 10.0 mi Variable 5.8 mph - N/A   Clear
9:51 AM 66.9 °F 52.0 °F 59% 29.92 in 10.0 mi West 13.8 mph 24.2 mph N/A   Mostly Cloudy
10:51 AM 64.9 °F 52.0 °F 63% 29.92 in 10.0 mi West 8.1 mph - 0.00 in   Overcast
11:51 AM 68.0 °F 54.0 °F 61% 29.90 in 10.0 mi WSW 10.4 mph 20.7 mph 0.00 in   Clear
12:51 PM 71.1 °F 53.1 °F 53% 29.88 in 10.0 mi West 11.5 mph 20.7 mph N/A   Partly Cloudy
1:51 PM 70.0 °F 51.1 °F 51% 29.87 in 10.0 mi West 10.4 mph - N/A   Mostly Cloudy
2:51 PM 71.6 °F 50.0 °F 46% 29.86 in 10.0 mi West 12.7 mph - N/A   Overcast
3:51 PM 73.0 °F 48.9 °F 42% 29.84 in 10.0 mi West 11.5 mph 20.7 mph N/A   Overcast
4:51 PM 69.1 °F 51.1 °F 53% 29.86 in 10.0 mi WNW 9.2 mph 17.3 mph 0.00 in   Overcast
5:51 PM 64.9 °F 55.9 °F 73% 29.88 in 10.0 mi West 4.6 mph - 0.00 in   Mostly Cloudy
6:51 PM 64.9 °F 55.9 °F 73% 29.87 in 10.0 mi Calm Calm - 0.00 in Rain Light Rain
7:51 PM 62.1 °F 57.9 °F 86% 29.87 in 10.0 mi Calm Calm - 0.01 in   Overcast
8:51 PM 61.0 °F 55.9 °F 83% 29.86 in 10.0 mi Calm Calm - 0.00 in   Overcast
9:51 PM 59.0 °F 57.9 °F 96% 29.89 in 10.0 mi Calm Calm - N/A   Overcast
10:51 PM 57.9 °F 55.9 °F 93% 29.89 in 10.0 mi Calm Calm - N/A   Mostly Cloudy
11:51 PM 57.0 °F 55.0 °F 93% 29.89 in 10.0 mi Calm Calm - N/A   Overcast